Weather History for KMHT - November, 2012

Change the Weather History Date:

Friday, November 9, 2012

  Actual Average Record
Temperature  
Mean Temperature 44 °F -  
Max Temperature 52 °F 50 °F 69 °F (2011)
Min Temperature 37 °F 30 °F 13 °F (1952)
Degree Days  
Heating Degree Days 20    
Moisture  
Dew Point 25 °F    
Average Humidity 51    
Maximum Humidity 70    
Minimum Humidity 26    
Precipitation  
Precipitation 0.00 in - - ()
Sea Level Pressure  
Sea Level Pressure 29.97 in    
Wind  
Wind Speed 10 mph (NW)    
Max Wind Speed 15 mph    
Max Gust Speed 25 mph    
Visibility 10 miles    
Events      
Averages and records for this station are not official NWS values.
T = Trace of Precipitation, MM = Missing Value Source: NWS Daily Summary

Daily Weather History Graph

Daily Weather History Graph

Search for Another Location

Airport or City:

Trip Planner

Search our weather history database for the weather conditions in past years. The results will help you decide how hot, cold, wet, or windy it might be!

Date:

Astronomy

Nov. 09, 2012 Rise Set
Actual Time 6:30 AM EST 4:27 PM EST
Civil Twilight 6:00 AM EST 4:57 PM EST
Nautical Twilight 5:26 AM EST 5:31 PM EST
Astronomical Twilight 4:53 AM EST 6:05 PM EST
Moon 1:19 AM EST (11/9) 1:45 PM EST (11/9)
Length of Visible Light 10h 57m
Length of Day
9h 56m
Waning Crescent, 23% of the Moon is Illuminated
Nov 9
Waning Crescent
Nov 13
New
Nov 20
First Quarter
Nov 28
Full
Dec 6
Last Quarter

Hourly Weather History & Observations

Time (EST) Temp. Windchill Dew Point Humidity Pressure Visibility Wind Dir Wind Speed Gust Speed Precip Events Conditions
12:53 AM 37.9 °F 31.5 °F 28.9 °F 70% 29.82 in 10.0 mi NW 9.2 mph - N/A   Overcast
1:53 AM 37.9 °F 30.9 °F 28.9 °F 70% 29.84 in 10.0 mi NW 10.4 mph - N/A   Overcast
2:53 AM 37.9 °F 30.0 °F 28.0 °F 68% 29.83 in 10.0 mi NW 12.7 mph 20.7 mph N/A   Overcast
3:53 AM 37.0 °F 28.9 °F 28.0 °F 70% 29.85 in 10.0 mi NW 12.7 mph 20.7 mph N/A   Overcast
4:53 AM 37.0 °F 28.1 °F 28.0 °F 70% 29.86 in 10.0 mi NW 15.0 mph 23.0 mph N/A   Clear
5:53 AM 37.0 °F 29.3 °F 28.0 °F 70% 29.89 in 10.0 mi NW 11.5 mph 25.3 mph N/A   Clear
6:53 AM 37.0 °F 29.3 °F 27.0 °F 67% 29.92 in 10.0 mi NW 11.5 mph 17.3 mph N/A   Partly Cloudy
7:53 AM 39.0 °F 31.0 °F 27.0 °F 62% 29.94 in 10.0 mi NW 13.8 mph 20.7 mph N/A   Partly Cloudy
8:53 AM 41.0 °F 35.2 °F 27.0 °F 57% 29.94 in 10.0 mi NW 9.2 mph 20.7 mph N/A   Clear
9:53 AM 44.1 °F 37.7 °F 27.0 °F 51% 29.96 in 10.0 mi NNW 12.7 mph - N/A   Partly Cloudy
10:53 AM 46.0 °F 39.9 °F 25.0 °F 44% 29.96 in 10.0 mi NNW 13.8 mph 19.6 mph N/A   Partly Cloudy
11:53 AM 46.0 °F 40.2 °F 21.0 °F 37% 29.96 in 10.0 mi NW 12.7 mph - N/A   Scattered Clouds
12:53 PM 50.0 °F - 19.9 °F 31% 29.96 in 10.0 mi NW 13.8 mph 21.9 mph N/A   Partly Cloudy
1:53 PM 51.1 °F - 19.0 °F 28% 29.96 in 10.0 mi NW 12.7 mph 21.9 mph N/A   Clear
2:53 PM 52.0 °F - 18.0 °F 26% 29.97 in 10.0 mi NW 10.4 mph 19.6 mph N/A   Clear
3:53 PM 50.0 °F - 18.0 °F 28% 30.01 in 10.0 mi NW 11.5 mph 20.7 mph N/A   Clear
4:53 PM 48.0 °F - 19.0 °F 32% 30.04 in 10.0 mi WNW 6.9 mph - N/A   Clear
5:53 PM 46.0 °F 41.9 °F 23.0 °F 40% 30.06 in 10.0 mi NW 8.1 mph - N/A   Clear
6:53 PM 44.1 °F - 27.0 °F 51% 30.08 in 10.0 mi Calm Calm - N/A   Clear
7:53 PM 42.1 °F - 25.0 °F 51% 30.09 in 10.0 mi Calm Calm - N/A   Clear
8:53 PM 42.1 °F - 24.1 °F 49% 30.10 in 10.0 mi Calm Calm - N/A   Overcast
9:53 PM 41.0 °F - 25.0 °F 53% 30.10 in 10.0 mi Calm Calm - N/A   Mostly Cloudy
10:53 PM 43.0 °F - 26.1 °F 51% 30.11 in 10.0 mi Calm Calm - N/A   Scattered Clouds
11:53 PM 42.8 °F 41.1 °F 28.4 °F 57% 30.06 in 10.0 mi Variable 3.5 mph - N/A   Overcast